Year,Month,Day,Hour,Minute,Value (Times are PST for windspeed in km/hr)
2013,12,02,00,00,27.40
2013,12,02,00,02,29.00
2013,12,02,00,03,14.50
2013,12,02,00,04,16.10
2013,12,02,00,05,11.30
2013,12,02,00,07,12.90
2013,12,02,00,08,12.90
2013,12,02,00,09,16.10
2013,12,02,00,11,9.70
2013,12,02,00,12,24.10
2013,12,02,00,13,19.30
2013,12,02,00,14,14.50
2013,12,02,00,16,25.70
2013,12,02,00,17,17.70
2013,12,02,00,18,11.30
2013,12,02,00,20,20.90
2013,12,02,00,21,4.80
2013,12,02,00,22,16.10
2013,12,02,00,23,12.90
2013,12,02,00,25,9.70
2013,12,02,00,26,24.10
2013,12,02,00,27,12.90
2013,12,02,00,28,14.50
2013,12,02,00,29,19.30
2013,12,02,00,31,14.50
2013,12,02,00,32,8.00
2013,12,02,00,33,9.70
2013,12,02,00,34,19.30
2013,12,02,00,36,11.30
2013,12,02,00,37,24.10
2013,12,02,00,39,11.30
2013,12,02,00,40,19.30
2013,12,02,00,41,16.10
2013,12,02,00,42,14.50
2013,12,02,00,43,14.50
2013,12,02,00,44,24.10
2013,12,02,00,46,20.90
2013,12,02,00,47,16.10
2013,12,02,00,48,16.10
2013,12,02,00,49,14.50
2013,12,02,00,51,24.10
2013,12,02,00,52,24.10
2013,12,02,00,53,12.90
2013,12,02,00,54,12.90
2013,12,02,00,55,14.50
2013,12,02,00,56,17.70
2013,12,02,00,57,16.10
2013,12,02,00,58,16.10
2013,12,02,00,59,4.80
2013,12,02,01,00,22.50
2013,12,02,01,02,9.70
2013,12,02,01,03,6.40
2013,12,02,01,04,9.70
2013,12,02,01,05,20.90
2013,12,02,01,07,14.50
2013,12,02,01,08,12.90
2013,12,02,01,09,11.30
2013,12,02,01,10,17.70
2013,12,02,01,11,16.10
2013,12,02,01,12,11.30
2013,12,02,01,13,14.50
2013,12,02,01,14,9.70
2013,12,02,01,16,6.40
2013,12,02,01,17,17.70
2013,12,02,01,18,14.50
2013,12,02,01,19,16.10
2013,12,02,01,21,14.50
2013,12,02,01,22,20.90
2013,12,02,01,23,25.70
2013,12,02,01,24,25.70
2013,12,02,01,25,25.70
2013,12,02,01,27,25.70
2013,12,02,01,28,6.40
2013,12,02,01,29,17.70
2013,12,02,01,30,33.80
2013,12,02,01,31,12.90
2013,12,02,01,33,19.30
2013,12,02,01,34,25.70
2013,12,02,01,35,17.70
2013,12,02,01,37,20.90
2013,12,02,01,38,9.70
2013,12,02,01,39,8.00
2013,12,02,01,40,9.70
2013,12,02,01,41,20.90
2013,12,02,01,42,24.10
2013,12,02,01,43,12.90
2013,12,02,01,44,11.30
2013,12,02,01,46,11.30
2013,12,02,01,47,17.70
2013,12,02,01,48,4.80
2013,12,02,01,49,12.90
2013,12,02,01,51,19.30
2013,12,02,01,52,19.30
2013,12,02,01,53,9.70
2013,12,02,01,54,29.00
2013,12,02,01,56,3.20
2013,12,02,01,57,14.50
2013,12,02,01,58,11.30
2013,12,02,01,59,6.40
2013,12,02,02,01,11.30
2013,12,02,02,02,14.50
2013,12,02,02,03,9.70
2013,12,02,02,05,9.70
2013,12,02,02,06,9.70
2013,12,02,02,07,16.10
2013,12,02,02,08,17.70
2013,12,02,02,10,4.80
2013,12,02,02,11,12.90
2013,12,02,02,12,16.10
2013,12,02,02,13,14.50
2013,12,02,02,15,19.30
2013,12,02,02,16,9.70
2013,12,02,02,17,9.70
2013,12,02,02,18,6.40
2013,12,02,02,19,11.30
2013,12,02,02,20,24.10
2013,12,02,02,21,9.70
2013,12,02,02,22,12.90
2013,12,02,02,23,17.70
2013,12,02,02,25,20.90
2013,12,02,02,26,8.00
2013,12,02,02,27,17.70
2013,12,02,02,28,4.80
2013,12,02,02,29,8.00
2013,12,02,02,31,12.90
2013,12,02,02,32,9.70
2013,12,02,02,33,9.70
2013,12,02,02,34,9.70
2013,12,02,02,36,6.40
2013,12,02,02,37,16.10
2013,12,02,02,38,19.30
2013,12,02,02,39,20.90
2013,12,02,02,41,24.10
2013,12,02,02,42,6.40
2013,12,02,02,43,14.50
2013,12,02,02,44,4.80
2013,12,02,02,46,11.30
2013,12,02,02,47,9.70
2013,12,02,02,48,19.30
2013,12,02,02,50,14.50
2013,12,02,02,51,12.90
2013,12,02,02,52,3.20
2013,12,02,02,54,3.20
2013,12,02,02,55,12.90
2013,12,02,02,56,6.40
2013,12,02,02,57,17.70
2013,12,02,02,59,16.10
2013,12,02,03,00,8.00
2013,12,02,03,01,19.30
2013,12,02,03,02,12.90
2013,12,02,03,04,14.50
2013,12,02,03,05,14.50
2013,12,02,03,06,3.20
2013,12,02,03,07,3.20
2013,12,02,03,09,8.00
2013,12,02,03,10,3.20
2013,12,02,03,11,8.00
2013,12,02,03,12,11.30
2013,12,02,03,14,12.90
2013,12,02,03,15,22.50
2013,12,02,03,16,6.40
2013,12,02,03,17,8.00
2013,12,02,03,18,11.30
2013,12,02,03,19,11.30
2013,12,02,03,20,19.30
2013,12,02,03,21,17.70
2013,12,02,03,22,16.10
2013,12,02,03,23,19.30
2013,12,02,03,24,8.00
2013,12,02,03,26,14.50
2013,12,02,03,27,8.00
2013,12,02,03,28,14.50
2013,12,02,03,29,6.40
2013,12,02,03,31,12.90
2013,12,02,03,33,19.30
2013,12,02,03,34,19.30
2013,12,02,03,36,8.00
2013,12,02,03,37,14.50
2013,12,02,03,38,9.70
2013,12,02,03,40,11.30
2013,12,02,03,41,8.00
2013,12,02,03,42,11.30
2013,12,02,03,43,16.10
2013,12,02,03,44,11.30
2013,12,02,03,45,14.50
2013,12,02,03,46,12.90
2013,12,02,03,47,17.70
2013,12,02,03,48,27.40
2013,12,02,03,49,16.10
2013,12,02,03,51,6.40
2013,12,02,03,52,11.30
2013,12,02,03,54,14.50
2013,12,02,03,55,19.30
2013,12,02,03,56,9.70
2013,12,02,03,57,17.70
2013,12,02,03,59,4.80
2013,12,02,04,00,12.90
2013,12,02,04,01,6.40
2013,12,02,04,02,9.70
2013,12,02,04,03,12.90
2013,12,02,04,04,8.00
2013,12,02,04,06,8.00
2013,12,02,04,07,8.00
2013,12,02,04,08,9.70
2013,12,02,04,09,14.50
2013,12,02,04,11,9.70
2013,12,02,04,12,8.00
2013,12,02,04,14,12.90
2013,12,02,04,15,3.20
2013,12,02,04,16,4.80
2013,12,02,04,17,9.70
2013,12,02,04,19,6.40
2013,12,02,04,20,6.40
2013,12,02,04,21,0.00
2013,12,02,04,22,4.80
2013,12,02,04,24,4.80
2013,12,02,04,25,8.00
2013,12,02,04,27,6.40
2013,12,02,04,28,11.30
2013,12,02,04,29,3.20
2013,12,02,04,32,6.40
2013,12,02,04,33,6.40
2013,12,02,04,35,4.80
2013,12,02,04,37,6.40
2013,12,02,04,38,4.80
2013,12,02,04,39,6.40
2013,12,02,04,41,9.70
2013,12,02,04,42,4.80
2013,12,02,04,43,6.40
2013,12,02,04,46,1.60
2013,12,02,04,51,1.60
2013,12,02,04,58,1.60
2013,12,02,06,07,0.00
2013,12,02,06,08,4.80
2013,12,02,06,09,1.60
2013,12,02,06,11,6.40
2013,12,02,06,12,4.80
2013,12,02,06,13,3.20
2013,12,02,06,14,6.40
2013,12,02,06,16,6.40
2013,12,02,06,17,6.40
2013,12,02,06,18,6.40
2013,12,02,06,19,4.80
2013,12,02,06,21,4.80
2013,12,02,06,22,6.40
2013,12,02,06,23,3.20
2013,12,02,06,24,3.20
2013,12,02,06,26,4.80
2013,12,02,06,27,4.80
2013,12,02,06,28,3.20
2013,12,02,06,29,8.00
2013,12,02,06,30,8.00
2013,12,02,06,31,8.00
2013,12,02,06,32,4.80
2013,12,02,06,33,3.20
2013,12,02,06,34,1.60
2013,12,02,06,36,4.80
2013,12,02,06,37,3.20
2013,12,02,06,38,1.60
2013,12,02,06,39,4.80
2013,12,02,06,41,8.00
2013,12,02,06,42,4.80
2013,12,02,06,43,8.00
2013,12,02,06,44,1.60
2013,12,02,06,46,6.40
2013,12,02,06,47,8.00
2013,12,02,06,48,3.20
2013,12,02,06,49,3.20
2013,12,02,06,51,6.40
2013,12,02,06,52,11.30
2013,12,02,06,53,3.20
2013,12,02,06,54,1.60
2013,12,02,06,56,4.80
2013,12,02,06,57,1.60
2013,12,02,06,58,3.20
2013,12,02,06,59,1.60
2013,12,02,07,01,8.00
2013,12,02,07,02,4.80
2013,12,02,07,03,3.20
2013,12,02,07,04,4.80
2013,12,02,07,06,3.20
2013,12,02,07,07,1.60
2013,12,02,07,08,4.80
2013,12,02,07,09,9.70
2013,12,02,07,10,6.40
2013,12,02,07,12,6.40
2013,12,02,07,13,4.80
2013,12,02,07,14,8.00
2013,12,02,07,15,4.80
2013,12,02,07,17,8.00
2013,12,02,07,18,8.00
2013,12,02,07,19,1.60
2013,12,02,07,20,4.80
2013,12,02,07,22,6.40
2013,12,02,07,23,1.60
2013,12,02,07,24,6.40
2013,12,02,07,25,6.40
2013,12,02,07,27,6.40
2013,12,02,07,28,6.40
2013,12,02,07,29,3.20
2013,12,02,07,31,3.20
2013,12,02,07,32,3.20
2013,12,02,07,33,3.20
2013,12,02,07,35,1.60
2013,12,02,07,36,1.60
2013,12,02,07,37,3.20
2013,12,02,07,38,9.70
2013,12,02,07,39,4.80
2013,12,02,07,41,8.00
2013,12,02,07,42,6.40
2013,12,02,07,43,3.20
2013,12,02,07,44,4.80
2013,12,02,07,46,4.80
2013,12,02,07,47,3.20
2013,12,02,07,48,0.00
2013,12,02,07,49,0.00
2013,12,02,07,51,8.00
2013,12,02,07,52,4.80
2013,12,02,07,53,4.80
2013,12,02,07,54,3.20
2013,12,02,07,56,3.20
2013,12,02,07,57,3.20
2013,12,02,07,58,9.70
2013,12,02,07,59,4.80
2013,12,02,08,01,0.00
2013,12,02,08,02,6.40
2013,12,02,08,03,3.20
2013,12,02,08,04,8.00
2013,12,02,08,06,6.40
2013,12,02,08,07,4.80
2013,12,02,08,08,4.80
2013,12,02,08,09,11.30
2013,12,02,08,11,3.20
2013,12,02,08,12,3.20
2013,12,02,08,13,1.60
2013,12,02,08,14,1.60
2013,12,02,08,16,3.20
2013,12,02,08,17,6.40
2013,12,02,08,18,3.20
2013,12,02,08,19,3.20
2013,12,02,08,21,8.00
2013,12,02,08,22,3.20
2013,12,02,08,23,1.60
2013,12,02,08,24,3.20
2013,12,02,08,25,0.00
2013,12,02,08,27,3.20
2013,12,02,08,28,1.60
2013,12,02,08,29,0.00
2013,12,02,08,30,0.00
2013,12,02,08,32,0.00
2013,12,02,08,33,0.00
2013,12,02,08,34,0.00
2013,12,02,08,36,0.00
2013,12,02,08,37,0.00
2013,12,02,08,38,0.00
2013,12,02,08,39,3.20
2013,12,02,08,41,3.20
2013,12,02,08,42,1.60
2013,12,02,08,43,3.20
2013,12,02,08,44,4.80
2013,12,02,08,46,1.60
2013,12,02,08,47,3.20
2013,12,02,08,48,4.80
2013,12,02,08,49,6.40
2013,12,02,08,51,3.20
2013,12,02,08,52,3.20
2013,12,02,08,53,4.80
2013,12,02,08,54,4.80
2013,12,02,08,56,0.00
2013,12,02,08,57,1.60
2013,12,02,08,58,4.80
2013,12,02,08,59,3.20
2013,12,02,09,00,1.60
2013,12,02,09,01,3.20
2013,12,02,09,02,0.00
2013,12,02,09,04,1.60
2013,12,02,09,05,1.60
2013,12,02,09,06,6.40
2013,12,02,09,07,3.20
2013,12,02,09,09,4.80
2013,12,02,09,10,1.60
2013,12,02,09,11,4.80
2013,12,02,09,12,4.80
2013,12,02,09,13,4.80
2013,12,02,09,14,4.80
2013,12,02,09,15,4.80
2013,12,02,09,16,4.80
2013,12,02,09,17,4.80
2013,12,02,09,18,1.60
2013,12,02,09,19,6.40
2013,12,02,09,20,0.00
2013,12,02,09,21,4.80
2013,12,02,09,22,3.20
2013,12,02,09,24,1.60
2013,12,02,09,25,3.20
2013,12,02,09,26,4.80
2013,12,02,09,28,8.00
2013,12,02,09,29,3.20
2013,12,02,09,30,8.00
2013,12,02,09,31,4.80
2013,12,02,09,33,3.20
2013,12,02,09,34,0.00
2013,12,02,09,35,8.00
2013,12,02,09,36,3.20
2013,12,02,09,38,6.40
2013,12,02,09,39,6.40
2013,12,02,09,40,4.80
2013,12,02,09,41,4.80
2013,12,02,09,43,8.00
2013,12,02,09,44,11.30
2013,12,02,09,45,11.30
2013,12,02,09,47,6.40
2013,12,02,09,48,6.40
2013,12,02,09,49,4.80
2013,12,02,09,50,1.60
2013,12,02,09,51,4.80
2013,12,02,09,52,6.40
2013,12,02,09,53,4.80
2013,12,02,09,54,3.20
2013,12,02,09,55,1.60
2013,12,02,09,57,3.20
2013,12,02,09,58,3.20
2013,12,02,09,59,3.20
2013,12,02,10,00,6.40
2013,12,02,10,02,3.20
2013,12,02,10,03,9.70
2013,12,02,10,04,11.30
2013,12,02,10,05,6.40
2013,12,02,10,07,8.00
2013,12,02,10,08,6.40
2013,12,02,10,09,4.80
2013,12,02,10,10,4.80
2013,12,02,10,12,6.40
2013,12,02,10,13,6.40
2013,12,02,10,14,1.60
2013,12,02,10,15,3.20
2013,12,02,10,17,8.00
2013,12,02,10,18,4.80
2013,12,02,10,19,1.60
2013,12,02,10,20,9.70
2013,12,02,10,21,8.00
2013,12,02,10,23,6.40
2013,12,02,10,24,4.80
2013,12,02,10,25,4.80
2013,12,02,10,26,3.20
2013,12,02,10,28,6.40
2013,12,02,10,29,3.20
2013,12,02,10,30,3.20
2013,12,02,10,31,4.80
2013,12,02,10,33,3.20
2013,12,02,10,34,4.80
2013,12,02,10,35,3.20
2013,12,02,10,36,0.00
2013,12,02,10,38,8.00
2013,12,02,10,39,8.00
2013,12,02,10,40,1.60
2013,12,02,10,41,9.70
2013,12,02,10,43,6.40
2013,12,02,10,44,4.80
2013,12,02,10,45,4.80
2013,12,02,10,46,8.00
2013,12,02,10,48,3.20
2013,12,02,10,49,9.70
2013,12,02,10,50,4.80
2013,12,02,10,51,8.00
2013,12,02,10,52,3.20
2013,12,02,10,54,11.30
2013,12,02,10,55,9.70
2013,12,02,10,56,9.70
2013,12,02,10,58,8.00
2013,12,02,10,59,4.80
2013,12,02,11,00,4.80
2013,12,02,11,01,8.00
2013,12,02,11,02,9.70
2013,12,02,11,04,9.70
2013,12,02,11,05,12.90
2013,12,02,11,06,6.40
2013,12,02,11,07,9.70
2013,12,02,11,08,9.70
2013,12,02,11,09,12.90
2013,12,02,11,10,1.60
2013,12,02,11,11,8.00
2013,12,02,11,13,3.20
2013,12,02,11,14,6.40
2013,12,02,11,15,6.40
2013,12,02,11,16,6.40
2013,12,02,11,18,4.80
2013,12,02,11,19,8.00
2013,12,02,11,20,11.30
2013,12,02,11,21,3.20
2013,12,02,11,23,6.40
2013,12,02,11,24,8.00
2013,12,02,11,25,4.80
2013,12,02,11,26,6.40
2013,12,02,11,28,6.40
2013,12,02,11,29,6.40
2013,12,02,11,30,3.20
2013,12,02,11,32,12.90
2013,12,02,11,33,8.00
2013,12,02,11,34,4.80
2013,12,02,11,35,4.80
2013,12,02,11,37,8.00
2013,12,02,11,38,9.70
2013,12,02,11,39,6.40
2013,12,02,11,40,4.80
2013,12,02,11,41,9.70
2013,12,02,11,42,11.30
2013,12,02,11,43,4.80
2013,12,02,11,44,6.40
2013,12,02,11,45,14.50
2013,12,02,11,46,9.70
2013,12,02,11,47,11.30
2013,12,02,11,48,11.30
2013,12,02,11,49,6.40
2013,12,02,11,51,1.60
2013,12,02,11,52,4.80
2013,12,02,11,53,12.90
2013,12,02,11,54,8.00
2013,12,02,11,56,3.20
2013,12,02,11,57,8.00
2013,12,02,11,58,6.40
2013,12,02,11,59,3.20
2013,12,02,12,01,3.20
2013,12,02,12,02,9.70
2013,12,02,12,03,9.70
2013,12,02,12,04,12.90
2013,12,02,12,06,14.50
2013,12,02,12,07,6.40
2013,12,02,12,08,4.80
2013,12,02,12,09,8.00
2013,12,02,12,11,9.70
2013,12,02,12,12,4.80
2013,12,02,12,13,11.30
2013,12,02,12,14,4.80
2013,12,02,12,15,9.70
2013,12,02,12,16,8.00
2013,12,02,12,17,6.40
2013,12,02,12,18,8.00
2013,12,02,12,19,4.80
2013,12,02,12,20,3.20
2013,12,02,12,21,3.20
2013,12,02,12,22,0.00
2013,12,02,12,23,3.20
2013,12,02,12,24,0.00
2013,12,02,12,26,1.60
2013,12,02,12,27,9.70
2013,12,02,12,28,6.40
2013,12,02,12,29,8.00
2013,12,02,12,31,6.40
2013,12,02,12,33,8.00
2013,12,02,12,34,11.30
2013,12,02,12,35,4.80
2013,12,02,12,36,1.60
2013,12,02,12,37,1.60
2013,12,02,12,39,8.00
2013,12,02,12,40,3.20
2013,12,02,12,41,9.70
2013,12,02,12,42,4.80
2013,12,02,12,43,6.40
2013,12,02,12,44,8.00
2013,12,02,12,45,3.20
2013,12,02,12,46,4.80
2013,12,02,12,47,6.40
2013,12,02,12,48,1.60
2013,12,02,12,49,8.00
2013,12,02,12,51,8.00
2013,12,02,12,52,9.70
2013,12,02,12,53,6.40
2013,12,02,12,55,9.70
2013,12,02,12,56,4.80
2013,12,02,12,57,8.00
2013,12,02,12,58,8.00
2013,12,02,12,59,6.40
2013,12,02,13,00,9.70
2013,12,02,13,01,6.40
2013,12,02,13,02,6.40
2013,12,02,13,03,4.80
2013,12,02,13,05,0.00
2013,12,02,13,06,3.20
2013,12,02,13,07,8.00
2013,12,02,13,08,3.20
2013,12,02,13,10,4.80
2013,12,02,13,11,6.40
2013,12,02,13,12,6.40
2013,12,02,13,13,4.80
2013,12,02,13,14,9.70
2013,12,02,13,16,4.80
2013,12,02,13,17,3.20
2013,12,02,13,18,6.40
2013,12,02,13,19,6.40
2013,12,02,13,21,4.80
2013,12,02,13,22,8.00
2013,12,02,13,23,8.00
2013,12,02,13,24,6.40
2013,12,02,13,25,9.70
2013,12,02,13,28,8.00
2013,12,02,13,30,9.70
2013,12,02,13,31,11.30
2013,12,02,13,32,8.00
2013,12,02,13,33,4.80
2013,12,02,13,34,9.70
2013,12,02,13,36,3.20
2013,12,02,13,37,9.70
2013,12,02,13,38,4.80
2013,12,02,13,39,4.80
2013,12,02,13,40,3.20
2013,12,02,13,41,6.40
2013,12,02,13,42,4.80
2013,12,02,13,43,6.40
2013,12,02,13,44,3.20
2013,12,02,13,46,3.20
2013,12,02,13,47,6.40
2013,12,02,13,48,6.40
2013,12,02,13,49,0.00
2013,12,02,13,50,4.80
2013,12,02,13,52,8.00
2013,12,02,13,53,4.80
2013,12,02,13,54,8.00
2013,12,02,13,55,8.00
2013,12,02,13,57,9.70
2013,12,02,13,58,12.90
2013,12,02,13,59,11.30
2013,12,02,14,00,4.80
2013,12,02,14,01,9.70
2013,12,02,14,03,12.90
2013,12,02,14,04,12.90
2013,12,02,14,05,4.80
2013,12,02,14,06,3.20
2013,12,02,14,08,3.20
2013,12,02,14,09,1.60
2013,12,02,14,10,1.60
2013,12,02,14,11,1.60
2013,12,02,14,13,3.20
2013,12,02,14,14,4.80
2013,12,02,14,15,6.40
2013,12,02,14,16,3.20
2013,12,02,14,18,0.00
2013,12,02,14,19,0.00
2013,12,02,14,20,1.60
2013,12,02,14,21,1.60
2013,12,02,14,23,4.80
2013,12,02,14,24,1.60
2013,12,02,14,25,6.40
2013,12,02,14,26,3.20
2013,12,02,14,28,1.60
2013,12,02,14,29,0.00
2013,12,02,14,30,0.00
2013,12,02,14,31,0.00
2013,12,02,14,33,0.00
2013,12,02,14,34,0.00
2013,12,02,14,35,1.60
2013,12,02,14,36,0.00
2013,12,02,14,38,3.20
2013,12,02,14,39,1.60
2013,12,02,14,40,0.00
2013,12,02,14,41,0.00
2013,12,02,14,43,4.80
2013,12,02,14,44,0.00
2013,12,02,14,45,0.00
2013,12,02,14,46,0.00
2013,12,02,14,47,0.00
2013,12,02,14,49,4.80
2013,12,02,14,50,0.00
2013,12,02,14,51,0.00
2013,12,02,14,52,1.60
2013,12,02,14,54,0.00
2013,12,02,14,55,1.60
2013,12,02,14,56,1.60
2013,12,02,14,58,0.00
2013,12,02,14,59,3.20
2013,12,02,15,00,1.60
2013,12,02,15,01,0.00
2013,12,02,15,02,0.00
2013,12,02,15,04,0.00
2013,12,02,15,05,0.00
2013,12,02,15,06,0.00
2013,12,02,15,07,0.00
2013,12,02,15,09,0.00
2013,12,02,15,10,0.00
2013,12,02,15,11,0.00
2013,12,02,15,13,0.00
2013,12,02,15,14,0.00
2013,12,02,15,15,0.00
2013,12,02,15,16,0.00
2013,12,02,15,17,0.00
2013,12,02,15,19,0.00
2013,12,02,15,20,4.80
2013,12,02,15,21,3.20
2013,12,02,15,22,0.00
2013,12,02,15,23,0.00
2013,12,02,15,25,0.00
2013,12,02,15,26,1.60
2013,12,02,15,27,1.60
2013,12,02,15,28,1.60
2013,12,02,15,29,0.00
2013,12,02,15,30,0.00
2013,12,02,15,31,0.00
2013,12,02,15,32,0.00
2013,12,02,15,34,0.00
2013,12,02,15,35,0.00
2013,12,02,15,36,0.00
2013,12,02,15,37,0.00
2013,12,02,15,39,3.20
2013,12,02,15,40,3.20
2013,12,02,15,41,0.00
2013,12,02,15,42,0.00
2013,12,02,15,44,1.60
2013,12,02,15,45,0.00
2013,12,02,15,46,4.80
2013,12,02,15,47,1.60
2013,12,02,15,49,0.00
2013,12,02,15,50,3.20
2013,12,02,15,51,0.00
2013,12,02,15,52,1.60
2013,12,02,15,54,0.00
2013,12,02,15,55,0.00
2013,12,02,15,56,3.20
2013,12,02,15,57,3.20
2013,12,02,15,59,3.20
2013,12,02,16,00,1.60
2013,12,02,16,01,0.00
2013,12,02,16,02,0.00
2013,12,02,16,04,0.00
2013,12,02,16,05,0.00
2013,12,02,16,06,0.00
2013,12,02,16,07,0.00
2013,12,02,16,09,0.00
2013,12,02,16,10,0.00
2013,12,02,16,11,0.00
2013,12,02,16,12,1.60
2013,12,02,16,14,0.00
2013,12,02,16,15,0.00
2013,12,02,16,16,0.00
2013,12,02,16,17,0.00
2013,12,02,16,18,0.00
2013,12,02,16,20,0.00
2013,12,02,16,21,0.00
2013,12,02,16,22,0.00
2013,12,02,16,23,1.60
2013,12,02,16,25,0.00
2013,12,02,16,26,0.00
2013,12,02,16,27,0.00
2013,12,02,16,28,0.00
2013,12,02,16,30,0.00
2013,12,02,16,31,0.00
2013,12,02,16,32,1.60
2013,12,02,16,33,0.00
2013,12,02,16,35,0.00
2013,12,02,16,36,0.00
2013,12,02,16,37,1.60
2013,12,02,16,38,0.00
2013,12,02,16,40,0.00
2013,12,02,16,41,1.60
2013,12,02,16,42,0.00
2013,12,02,16,43,0.00
2013,12,02,16,45,1.60
2013,12,02,16,46,0.00
2013,12,02,16,47,0.00
2013,12,02,16,48,0.00
2013,12,02,16,50,0.00
2013,12,02,16,51,0.00
2013,12,02,16,52,0.00
2013,12,02,16,53,0.00
2013,12,02,16,55,0.00
2013,12,02,16,56,0.00
2013,12,02,16,57,0.00
2013,12,02,16,58,0.00
2013,12,02,16,59,0.00
2013,12,02,17,01,0.00
2013,12,02,17,02,0.00
2013,12,02,17,03,0.00
2013,12,02,17,04,0.00
2013,12,02,17,05,0.00
2013,12,02,17,06,0.00
2013,12,02,17,07,0.00
2013,12,02,17,08,0.00
2013,12,02,17,10,0.00
2013,12,02,17,11,0.00
2013,12,02,17,12,0.00
2013,12,02,17,14,0.00
2013,12,02,17,15,0.00
2013,12,02,17,16,0.00
2013,12,02,17,17,0.00
2013,12,02,17,19,0.00
2013,12,02,17,20,0.00
2013,12,02,17,21,0.00
2013,12,02,17,22,0.00
2013,12,02,17,24,0.00
2013,12,02,17,25,3.20
2013,12,02,17,26,0.00
2013,12,02,17,27,0.00
2013,12,02,17,29,0.00
2013,12,02,17,30,0.00
2013,12,02,17,31,0.00
2013,12,02,17,32,1.60
2013,12,02,17,33,1.60
2013,12,02,17,34,1.60
2013,12,02,17,35,0.00
2013,12,02,17,36,0.00
2013,12,02,17,37,0.00
2013,12,02,17,38,0.00
2013,12,02,17,39,0.00
2013,12,02,17,40,0.00
2013,12,02,17,41,0.00
2013,12,02,17,42,0.00
2013,12,02,17,43,0.00
2013,12,02,17,44,0.00
2013,12,02,17,45,0.00
2013,12,02,17,46,0.00
2013,12,02,17,47,0.00
2013,12,02,17,48,0.00
2013,12,02,17,49,0.00
2013,12,02,17,50,0.00
2013,12,02,17,51,0.00
2013,12,02,17,52,0.00
2013,12,02,17,53,0.00
2013,12,02,17,54,0.00
2013,12,02,17,55,0.00
2013,12,02,17,56,0.00
2013,12,02,17,57,0.00
2013,12,02,17,58,0.00
2013,12,02,17,59,0.00
2013,12,02,18,00,0.00
2013,12,02,18,01,0.00
2013,12,02,18,02,0.00
2013,12,02,18,03,0.00
2013,12,02,18,04,0.00
2013,12,02,18,05,0.00
2013,12,02,18,06,0.00
2013,12,02,18,07,0.00
2013,12,02,18,09,0.00
2013,12,02,18,10,0.00
2013,12,02,18,11,0.00
2013,12,02,18,12,0.00
2013,12,02,18,13,0.00
2013,12,02,18,14,0.00
2013,12,02,18,15,0.00
2013,12,02,18,16,0.00
2013,12,02,18,17,1.60
2013,12,02,18,18,0.00
2013,12,02,18,19,0.00
2013,12,02,18,20,1.60
2013,12,02,18,21,1.60
2013,12,02,18,22,1.60
2013,12,02,18,23,3.20
2013,12,02,18,24,3.20
2013,12,02,18,25,3.20
2013,12,02,18,26,0.00
2013,12,02,18,27,3.20
2013,12,02,18,28,4.80
2013,12,02,18,29,4.80
2013,12,02,18,30,1.60
2013,12,02,18,31,3.20
2013,12,02,18,33,4.80
2013,12,02,18,34,1.60
2013,12,02,18,35,1.60
2013,12,02,18,36,1.60
2013,12,02,18,38,0.00
2013,12,02,18,39,0.00
2013,12,02,18,40,0.00
2013,12,02,18,42,0.00
2013,12,02,18,43,0.00
2013,12,02,18,44,1.60
2013,12,02,18,45,1.60
2013,12,02,18,47,3.20
2013,12,02,18,48,0.00
2013,12,02,18,49,1.60
2013,12,02,18,50,6.40
2013,12,02,18,52,9.70
2013,12,02,18,53,12.90
2013,12,02,18,54,11.30
2013,12,02,18,55,14.50
2013,12,02,18,57,3.20
2013,12,02,18,58,16.10
2013,12,02,18,59,9.70
2013,12,02,19,00,3.20
2013,12,02,19,02,9.70
2013,12,02,19,03,6.40
2013,12,02,19,04,3.20
2013,12,02,19,05,14.50
2013,12,02,19,06,6.40
2013,12,02,19,07,4.80
2013,12,02,19,09,4.80
2013,12,02,19,10,0.00
2013,12,02,19,11,8.00
2013,12,02,19,12,4.80
2013,12,02,19,13,3.20
2013,12,02,19,15,3.20
2013,12,02,19,16,12.90
2013,12,02,19,17,0.00
2013,12,02,19,19,3.20
2013,12,02,19,20,9.70
2013,12,02,19,21,14.50
2013,12,02,19,22,4.80
2013,12,02,19,24,16.10
2013,12,02,19,25,8.00
2013,12,02,19,26,1.60
2013,12,02,19,27,3.20
2013,12,02,19,29,0.00
2013,12,02,19,30,8.00
2013,12,02,19,31,4.80
2013,12,02,19,32,0.00
2013,12,02,19,33,3.20
2013,12,02,19,34,4.80
2013,12,02,19,35,8.00
2013,12,02,19,36,6.40
2013,12,02,19,37,6.40
2013,12,02,19,39,4.80
2013,12,02,19,40,6.40
2013,12,02,19,41,11.30
2013,12,02,19,42,8.00
2013,12,02,19,43,0.00
2013,12,02,19,45,1.60
2013,12,02,19,46,4.80
2013,12,02,19,47,6.40
2013,12,02,19,48,3.20
2013,12,02,19,49,4.80
2013,12,02,19,50,0.00
2013,12,02,19,51,9.70
2013,12,02,19,52,1.60
2013,12,02,19,54,3.20
2013,12,02,19,55,3.20
2013,12,02,19,56,1.60
2013,12,02,19,57,4.80
2013,12,02,19,59,6.40
2013,12,02,20,00,6.40
2013,12,02,20,01,6.40
2013,12,02,20,02,6.40
2013,12,02,20,03,0.00
2013,12,02,20,04,4.80
2013,12,02,20,05,1.60
2013,12,02,20,06,0.00
2013,12,02,20,07,3.20
2013,12,02,20,08,0.00
2013,12,02,20,09,0.00
2013,12,02,20,10,4.80
2013,12,02,20,11,4.80
2013,12,02,20,12,4.80
2013,12,02,20,13,0.00
2013,12,02,20,14,3.20
2013,12,02,20,15,4.80
2013,12,02,20,16,3.20
2013,12,02,20,17,4.80
2013,12,02,20,18,4.80
2013,12,02,20,20,3.20
2013,12,02,20,21,3.20
2013,12,02,20,22,8.00
2013,12,02,20,23,3.20
2013,12,02,20,25,4.80
2013,12,02,20,26,1.60
2013,12,02,20,27,3.20
2013,12,02,20,28,6.40
2013,12,02,20,29,6.40
2013,12,02,20,30,6.40
2013,12,02,20,31,3.20
2013,12,02,20,32,4.80
2013,12,02,20,33,4.80
2013,12,02,20,35,6.40
2013,12,02,20,36,8.00
2013,12,02,20,37,3.20
2013,12,02,20,38,6.40
2013,12,02,20,39,0.00
2013,12,02,20,40,16.10
2013,12,02,20,41,3.20
2013,12,02,20,43,4.80
2013,12,02,20,44,6.40
2013,12,02,20,45,8.00
2013,12,02,20,46,4.80
2013,12,02,20,47,11.30
2013,12,02,20,48,14.50
2013,12,02,20,49,0.00
2013,12,02,20,50,4.80
2013,12,02,20,51,3.20
2013,12,02,20,52,4.80
2013,12,02,20,53,6.40
2013,12,02,20,54,1.60
2013,12,02,20,55,3.20
2013,12,02,20,56,1.60
2013,12,02,20,57,0.00
2013,12,02,20,58,8.00
2013,12,02,20,59,6.40
2013,12,02,21,01,0.00
2013,12,02,21,02,9.70
2013,12,02,21,03,6.40
2013,12,02,21,04,0.00
2013,12,02,21,05,3.20
2013,12,02,21,06,4.80
2013,12,02,21,07,8.00
2013,12,02,21,08,4.80
2013,12,02,21,09,9.70
2013,12,02,21,10,8.00
2013,12,02,21,11,3.20
2013,12,02,21,12,4.80
2013,12,02,21,13,1.60
2013,12,02,21,15,1.60
2013,12,02,21,16,1.60
2013,12,02,21,17,6.40
2013,12,02,21,19,6.40
2013,12,02,21,20,0.00
2013,12,02,21,21,3.20
2013,12,02,21,22,3.20
2013,12,02,21,23,3.20
2013,12,02,21,24,4.80
2013,12,02,21,25,3.20
2013,12,02,21,26,1.60
2013,12,02,21,27,3.20
2013,12,02,21,28,1.60
2013,12,02,21,29,3.20
2013,12,02,21,30,0.00
2013,12,02,21,31,0.00
2013,12,02,21,32,1.60
2013,12,02,21,33,1.60
2013,12,02,21,35,1.60
2013,12,02,21,36,0.00
2013,12,02,21,37,3.20
2013,12,02,21,39,3.20
2013,12,02,21,40,0.00
2013,12,02,21,41,1.60
2013,12,02,21,42,4.80
2013,12,02,21,43,1.60
2013,12,02,21,44,1.60
2013,12,02,21,45,4.80
2013,12,02,21,46,1.60
2013,12,02,21,47,0.00
2013,12,02,21,48,12.90
2013,12,02,21,49,4.80
2013,12,02,21,51,1.60
2013,12,02,21,52,6.40
2013,12,02,21,53,0.00
2013,12,02,21,54,3.20
2013,12,02,21,56,8.00
2013,12,02,21,57,4.80
2013,12,02,21,58,9.70
2013,12,02,21,59,3.20
2013,12,02,22,00,3.20
2013,12,02,22,01,4.80
2013,12,02,22,02,1.60
2013,12,02,22,03,0.00
2013,12,02,22,04,1.60
2013,12,02,22,05,4.80
2013,12,02,22,06,3.20
2013,12,02,22,07,6.40
2013,12,02,22,08,9.70
2013,12,02,22,10,12.90
2013,12,02,22,11,12.90
2013,12,02,22,12,6.40
2013,12,02,22,13,9.70
2013,12,02,22,14,8.00
2013,12,02,22,15,1.60
2013,12,02,22,16,4.80
2013,12,02,22,17,9.70
2013,12,02,22,19,6.40
2013,12,02,22,20,8.00
2013,12,02,22,21,9.70
2013,12,02,22,22,16.10
2013,12,02,22,24,14.50
2013,12,02,22,25,14.50
2013,12,02,22,26,12.90
2013,12,02,22,27,9.70
2013,12,02,22,28,11.30
2013,12,02,22,29,8.00
2013,12,02,22,30,9.70
2013,12,02,22,31,9.70
2013,12,02,22,33,14.50
2013,12,02,22,34,9.70
2013,12,02,22,35,4.80
2013,12,02,22,36,14.50
2013,12,02,22,38,16.10
2013,12,02,22,39,11.30
2013,12,02,22,40,4.80
2013,12,02,22,41,8.00
2013,12,02,22,42,6.40
2013,12,02,22,43,12.90
2013,12,02,22,44,12.90
2013,12,02,22,45,6.40
2013,12,02,22,47,11.30
2013,12,02,22,48,8.00
2013,12,02,22,49,11.30